When you browse on this site, cookies collect data to enhance your experience and personalize the content and advertising you see.
Visit our Privacy Policy to learn more. By continuing to use the site, you agree to this use of cookies and data.
  • în România
  • Lista ţărilor
  • Pe 7 zile
  • Temperatura apei
  • Meteo pe hartă
  • Widget-uri
  • user-avatar
    Intrare

    Meteo pe oră la Dublin

    Astăzi, 22 Februarie, Sâmbătă

    Timp Temperatura Precipitaţii Vânt Presiune Umiditate
    00:00 +8°C° 0.8 mm 11 m/s 737 mmHg 88%
    01:00 +7°C° 0.3 mm 11 m/s 737 mmHg 86%
    02:00 +7°C° 0.3 mm 11 m/s 736 mmHg 84%
    03:00 +6°C° 0.3 mm 11 m/s 736 mmHg 82%
    04:00 +3°C° 0.3 mm 11 m/s 737 mmHg 84%
    05:00 +2°C° 0.3 mm 10 m/s 738 mmHg 86%
    06:00 +1°C° 0.3 mm 10 m/s 739 mmHg 88%
    07:00 +1°C° 0.1 mm 10 m/s 740 mmHg 86%
    08:00 +1°C° 0.1 mm 10 m/s 741 mmHg 85%
    09:00 +1°C° 0.1 mm 11 m/s 741 mmHg 83%
    10:00 +1°C° 0.1 mm 11 m/s 742 mmHg 80%
    11:00 +1°C° 0.1 mm 11 m/s 743 mmHg 78%
    12:00 +2°C° 0.1 mm 12 m/s 744 mmHg 75%
    13:00 +2°C° 0.1 mm 11 m/s 744 mmHg 76%
    14:00 +1°C° 0.1 mm 11 m/s 744 mmHg 76%
    15:00 +1°C° 0.1 mm 10 m/s 745 mmHg 77%
    16:00 +1°C° 0 mm 10 m/s 745 mmHg 79%
    17:00 +1°C° 0 mm 9 m/s 746 mmHg 81%
    18:00 0°C° 0 mm 8 m/s 746 mmHg 82%
    19:00 +1°C° 0 mm 8 m/s 746 mmHg 83%
    20:00 +2°C° 0 mm 7 m/s 746 mmHg 84%
    21:00 +2°C° 0 mm 7 m/s 746 mmHg 85%
    22:00 +2°C° 0.1 mm 6 m/s 746 mmHg 88%
    23:00 +2°C° 0.1 mm 5 m/s 745 mmHg 91%

    Mâine, 23 Februarie, Duminică

    Timp Temperatura Precipitaţii Vânt Presiune Umiditate
    00:00 +2°C° 0.1 mm 5 m/s 745 mmHg 94%
    01:00 +3°C° 1.6 mm 4 m/s 743 mmHg 95%
    02:00 +3°C° 1.6 mm 4 m/s 741 mmHg 96%
    03:00 +3°C° 1.6 mm 3 m/s 739 mmHg 98%
    04:00 +3°C° 1.7 mm 3 m/s 739 mmHg 97%
    05:00 +4°C° 1.7 mm 4 m/s 738 mmHg 97%
    06:00 +4°C° 1.7 mm 4 m/s 738 mmHg 97%
    07:00 +4°C° 0.2 mm 4 m/s 739 mmHg 96%
    08:00 +2°C° 0.2 mm 5 m/s 740 mmHg 95%
    09:00 +2°C° 0.2 mm 5 m/s 741 mmHg 94%
    10:00 +2°C° 0.1 mm 5 m/s 742 mmHg 92%
    11:00 +2°C° 0.1 mm 6 m/s 744 mmHg 90%
    12:00 +2°C° 0.1 mm 6 m/s 745 mmHg 88%
    13:00 +2°C° 0.1 mm 6 m/s 746 mmHg 82%
    14:00 +3°C° 0.1 mm 6 m/s 747 mmHg 77%
    15:00 +3°C° 0.1 mm 5 m/s 748 mmHg 72%
    16:00 +3°C° 0 mm 4 m/s 748 mmHg 75%
    17:00 +2°C° 0 mm 3 m/s 749 mmHg 78%
    18:00 +2°C° 0 mm 2 m/s 749 mmHg 82%
    19:00 +2°C° 0 mm 2 m/s 749 mmHg 81%
    20:00 +2°C° 0 mm 2 m/s 749 mmHg 81%
    21:00 +2°C° 0 mm 2 m/s 749 mmHg 81%
    22:00 0°C° 0.5 mm 4 m/s 748 mmHg 85%
    23:00 0°C° 0.5 mm 5 m/s 747 mmHg 90%

    Poimâine, 24 Februarie, Luni

    Timp Temperatura Precipitaţii Vânt Presiune Umiditate
    00:00 -1°C° 0.5 mm 7 m/s 747 mmHg 95%
    01:00 0°C° 0.4 mm 7 m/s 745 mmHg 94%
    02:00 +2°C° 0.4 mm 8 m/s 743 mmHg 94%
    03:00 +3°C° 0.4 mm 9 m/s 741 mmHg 93%
    04:00 +5°C° 2 mm 9 m/s 739 mmHg 93%
    05:00 +6°C° 2 mm 9 m/s 738 mmHg 93%
    06:00 +7°C° 2 mm 9 m/s 736 mmHg 93%
    07:00 +7°C° 0.5 mm 10 m/s 736 mmHg 91%
    08:00 +7°C° 0.5 mm 11 m/s 735 mmHg 88%
    09:00 +7°C° 0.5 mm 11 m/s 735 mmHg 86%
    10:00 +5°C° 0 mm 12 m/s 735 mmHg 83%
    11:00 +4°C° 0 mm 12 m/s 735 mmHg 80%
    12:00 +3°C° 0 mm 12 m/s 735 mmHg 77%
    13:00 +3°C° 0 mm 13 m/s 735 mmHg 74%
    14:00 +3°C° 0 mm 13 m/s 735 mmHg 71%
    15:00 +3°C° 0 mm 14 m/s 735 mmHg 68%
    16:00 +1°C° 0 mm 14 m/s 736 mmHg 70%
    17:00 +1°C° 0 mm 13 m/s 736 mmHg 71%
    18:00 0°C° 0 mm 13 m/s 736 mmHg 72%
    19:00 0°C° 0 mm 12 m/s 737 mmHg 72%
    20:00 -1°C° 0 mm 12 m/s 737 mmHg 72%
    21:00 -1°C° 0 mm 11 m/s 737 mmHg 72%
    22:00 -1°C° 0 mm 11 m/s 737 mmHg 74%
    23:00 0°C° 0 mm 10 m/s 737 mmHg 75%

    25 Februarie, Marţi

    Timp Temperatura Precipitaţii Vânt Presiune Umiditate
    00:00 -2°C° 0 mm 10 m/s 737 mmHg 76%
    01:00 -2°C° 0 mm 10 m/s 737 mmHg 78%
    02:00 -2°C° 0 mm 10 m/s 737 mmHg 80%
    03:00 0°C° 0 mm 9 m/s 737 mmHg 82%
    04:00 -1°C° 0 mm 9 m/s 737 mmHg 82%
    05:00 -1°C° 0 mm 8 m/s 736 mmHg 82%
    06:00 -2°C° 0 mm 8 m/s 736 mmHg 82%
    07:00 -1°C° 0 mm 8 m/s 736 mmHg 82%
    08:00 -1°C° 0 mm 8 m/s 736 mmHg 82%
    09:00 0°C° 0 mm 7 m/s 735 mmHg 82%
    10:00 0°C° 0.1 mm 8 m/s 735 mmHg 80%
    11:00 +1°C° 0.1 mm 8 m/s 735 mmHg 78%
    12:00 +2°C° 0.1 mm 8 m/s 735 mmHg 76%
    13:00 +2°C° 0.4 mm 8 m/s 734 mmHg 75%
    14:00 +1°C° 0.4 mm 9 m/s 734 mmHg 74%
    15:00 +1°C° 0.4 mm 10 m/s 734 mmHg 74%
    16:00 0°C° 0.2 mm 10 m/s 734 mmHg 78%
    17:00 -2°C° 0.2 mm 10 m/s 734 mmHg 82%
    18:00 -3°C° 0.2 mm 10 m/s 734 mmHg 86%
    19:00 -4°C° 0.1 mm 10 m/s 734 mmHg 84%
    20:00 -4°C° 0.1 mm 10 m/s 734 mmHg 82%
    21:00 -5°C° 0.1 mm 10 m/s 735 mmHg 80%
    22:00 -5°C° 0 mm 10 m/s 735 mmHg 80%
    23:00 -5°C° 0 mm 10 m/s 736 mmHg 80%

    26 Februarie, Miercuri

    Timp Temperatura Precipitaţii Vânt Presiune Umiditate
    00:00 -4°C° 0 mm 10 m/s 736 mmHg 80%
    01:00 -4°C° 0 mm 10 m/s 737 mmHg 80%
    02:00 -4°C° 0 mm 10 m/s 737 mmHg 81%
    03:00 -4°C° 0 mm 10 m/s 737 mmHg 82%
    04:00 -4°C° 0 mm 10 m/s 738 mmHg 79%
    05:00 -4°C° 0 mm 10 m/s 739 mmHg 77%
    06:00 -4°C° 0 mm 10 m/s 739 mmHg 75%
    07:00 -3°C° 0 mm 9 m/s 740 mmHg 72%
    08:00 -3°C° 0 mm 9 m/s 741 mmHg 69%
    09:00 -1°C° 0 mm 9 m/s 741 mmHg 66%
    10:00 0°C° 0 mm 8 m/s 742 mmHg 65%
    11:00 0°C° 0 mm 8 m/s 742 mmHg 63%
    12:00 +1°C° 0 mm 8 m/s 742 mmHg 62%
    13:00 +2°C° 0.2 mm 7 m/s 742 mmHg 68%
    14:00 +2°C° 0.2 mm 7 m/s 742 mmHg 75%
    15:00 +2°C° 0.2 mm 7 m/s 741 mmHg 81%
    16:00 +1°C° 0.1 mm 6 m/s 741 mmHg 83%
    17:00 +1°C° 0.1 mm 6 m/s 741 mmHg 86%
    18:00 -1°C° 0.1 mm 6 m/s 740 mmHg 88%
    19:00 0°C° 0 mm 5 m/s 740 mmHg 90%
    20:00 -1°C° 0 mm 5 m/s 740 mmHg 91%
    21:00 -2°C° 0 mm 5 m/s 740 mmHg 93%
    22:00 -2°C° 0 mm 5 m/s 740 mmHg 93%
    23:00 -2°C° 0 mm 4 m/s 740 mmHg 94%

    27 Februarie, Joi

    Timp Temperatura Precipitaţii Vânt Presiune Umiditate
    00:00 -2°C° 0 mm 4 m/s 740 mmHg 94%
    01:00 -3°C° 0 mm 4 m/s 740 mmHg 94%
    02:00 -3°C° 0 mm 4 m/s 739 mmHg 94%
    03:00 -2°C° 0 mm 3 m/s 739 mmHg 94%
    04:00 -2°C° 0 mm 3 m/s 739 mmHg 94%
    05:00 -2°C° 0 mm 3 m/s 739 mmHg 94%
    06:00 -2°C° 0 mm 3 m/s 738 mmHg 93%
    07:00 -2°C° 0 mm 3 m/s 739 mmHg 91%
    08:00 -1°C° 0 mm 3 m/s 739 mmHg 89%
    09:00 0°C° 0 mm 3 m/s 739 mmHg 86%
    10:00 +1°C° 0 mm 3 m/s 739 mmHg 82%
    11:00 +2°C° 0 mm 3 m/s 739 mmHg 77%
    12:00 +4°C° 0 mm 3 m/s 739 mmHg 73%
    13:00 +4°C° 0 mm 3 m/s 739 mmHg 71%
    14:00 +4°C° 0 mm 3 m/s 738 mmHg 70%
    15:00 +4°C° 0 mm 3 m/s 738 mmHg 69%
    16:00 +3°C° 0 mm 4 m/s 738 mmHg 73%
    17:00 +3°C° 0 mm 4 m/s 738 mmHg 76%
    18:00 +1°C° 0 mm 4 m/s 738 mmHg 80%
    19:00 +1°C° 0 mm 4 m/s 738 mmHg 84%
    20:00 0°C° 0 mm 4 m/s 738 mmHg 87%
    21:00 0°C° 0 mm 4 m/s 738 mmHg 91%
    22:00 0°C° 0 mm 5 m/s 737 mmHg 91%
    23:00 0°C° 0 mm 5 m/s 737 mmHg 91%
    Arată mai mult